Wind_Speed
29 28 27 27 29 30 30 29 28 28 29 31 31 30 29 28 29 28 26 28 31 31 31 34 35 31 28 29 29 29 32 32 31 31 30 30 31 32 31 31 33 34 34 34 35 39 43 44 42 40 40 41 43 45 46 45 45 46 46 48 49 43 37 37 40 41 42 42 40 38 35 34 36 36
27 28 28 28 29 30 30 29 28 28 29 31 31 32 32 31 31 30 29 31 32 30 28 31 33 31 26 24 25 26 29 31 31 31 31 31 31 32 33 32 33 34 35 36 37 37 40 44 46 43 40 40 41 43 45 46 45 45 45 45 48 48 44 38 37 41 45 44 41 41 39 36 36 38
29 30 30 30 30 29 29 28 28 29 29 29 30 31 33 34 34 33 32 35 37 33 32 33 34 34 31 27 25 25 27 30 31 31 32 32 31 31 33 34 35 35 36 38 40 40 39 41 46 48 46 43 41 40 42 45 47 46 45 45 45 47 48 42 37 38 42 43 43 43 41 37 37 39
28 30 30 29 29 28 28 28 29 29 30 30 30 30 31 33 34 35 34 38 42 40 37 37 38 38 38 35 32 30 28 29 30 31 32 32 31 31 32 34 36 37 38 38 39 40 41 42 43 47 50 49 46 44 41 42 46 47 47 47 45 45 47 47 41 38 40 42 44 44 41 39 39 40
27 29 30 29 28 28 30 31 31 31 31 31 31 31 32 32 32 33 34 38 43 42 38 38 39 38 38 39 39 37 35 32 31 32 33 32 31 31 31 33 35 36 39 40 40 39 40 43 44 45 48 51 51 50 47 44 44 45 46 47 47 45 46 48 46 42 40 42 45 45 42 42 41 41
31 31 31 29 28 27 29 31 31 32 32 32 33 32 33 34 34 34 34 35 38 39 34 32 34 34 33 36 39 40 40 38 36 36 36 34 33 32 32 33 35 35 36 38 41 41 39 41 45 47 47 49 51 52 53 51 48 44 43 45 47 47 45 46 48 47 43 42 45 46 45 45 44 43
33 34 34 33 30 28 28 29 29 30 30 31 33 33 33 34 35 35 35 35 36 36 33 30 32 34 34 36 38 39 39 40 39 39 38 36 35 35 34 34 35 35 34 34 37 40 40 39 41 46 49 49 50 51 53 54 53 49 45 44 44 46 46 45 47 48 46 42 43 46 47 47 46 45
26 30 34 36 34 32 31 30 29 29 29 29 30 31 31 33 34 34 35 36 37 38 37 36 36 36 37 38 39 38 38 38 38 37 37 36 35 36 36 35 35 35 34 33 34 36 39 38 38 41 45 48 50 51 51 53 56 55 51 46 45 45 46 45 46 48 49 46 43 44 47 50 50 48
21 23 27 31 33 34 33 32 31 30 30 30 29 29 29 30 32 32 32 35 37 38 40 42 43 41 40 40 40 39 38 37 36 35 35 34 34 35 36 36 36 35 34 33 33 34 35 37 39 40 43 45 48 49 49 51 54 57 56 51 47 46 46 46 45 47 50 50 46 44 44 49 52 52
23 22 23 25 29 32 33 35 35 34 32 31 31 30 29 29 30 31 31 32 34 36 38 41 43 42 41 39 38 37 37 37 36 36 36 35 35 35 36 37 36 35 33 32 32 33 33 34 36 39 43 45 46 47 48 49 51 55 58 56 52 48 46 47 46 45 49 52 50 46 43 45 50 54
28 27 27 28 29 32 34 36 37 36 34 33 33 32 31 30 30 31 31 30 31 33 35 37 39 40 39 37 35 34 35 37 39 39 39 40 38 35 35 37 37 36 33 31 31 33 33 33 33 35 39 44 46 46 47 48 50 52 55 57 56 53 49 47 46 45 47 51 52 50 46 44 47 52
29 31 33 33 34 35 36 37 37 35 34 34 33 32 30 30 30 31 32 32 32 33 34 36 37 38 38 36 34 32 34 36 38 38 38 40 39 35 34 36 37 37 34 32 31 32 33 35 35 35 36 40 45 46 46 46 49 52 53 54 55 56 53 50 48 47 47 50 53 52 49 45 45 47
23 26 29 31 32 33 33 33 33 32 32 32 32 30 29 30 31 32 33 32 32 31 32 34 35 35 35 34 33 33 34 36 37 37 38 39 37 35 35 36 36 37 36 34 34 34 34 35 36 37 37 39 42 45 46 45 46 51 53 53 53 54 54 52 49 49 48 49 51 53 51 47 44 45
20 21 22 23 24 24 24 25 26 26 27 27 28 29 28 29 31 31 32 32 31 31 33 33 31 30 30 31 30 30 31 34 37 39 40 39 37 35 36 37 37 36 36 36 38 38 37 37 37 38 38 38 39 43 46 45 44 47 51 52 51 52 54 52 50 49 49 49 50 52 53 51 46 44
20 20 20 20 20 20 20 20 20 21 23 24 25 26 28 29 30 31 32 32 32 32 33 32 29 28 29 30 29 29 30 32 34 38 39 39 38 36 36 37 37 35 35 37 40 41 40 39 38 39 39 38 38 41 45 46 43 43 46 48 49 51 53 53 50 49 49 50 50 51 52 53 50 46
20 20 20 20 20 19 19 19 20 20 20 21 22 23 24 27 29 31 33 34 33 32 32 31 30 30 31 31 30 30 30 29 27 29 34 35 36 36 35 36 35 33 34 36 37 39 39 38 37 37 38 38 38 40 43 46 44 41 41 43 45 49 52 54 53 51 50 50 51 51 52 53 53 51
21 20 20 19 19 20 19 20 21 21 21 22 24 23 22 25 29 31 33 34 33 31 31 32 32 32 32 31 29 27 26 26 22 20 25 28 32 34 34 33 31 30 32 32 32 34 35 33 33 34 35 35 37 38 40 43 45 43 40 40 42 45 49 52 54 53 52 51 50 51 51 52 53 54
21 20 20 20 19 20 20 21 21 20 20 21 22 23 23 24 27 31 32 31 32 31 32 34 35 35 33 31 28 24 22 23 21 15 15 18 22 25 27 26 24 24 27 28 29 31 31 29 29 31 31 31 33 35 37 40 43 44 42 41 42 44 47 49 51 51 51 51 50 49 50 50 50 53
20 21 22 22 21 20 19 19 21 20 19 20 21 22 23 22 23 28 28 27 28 28 29 33 35 35 33 31 28 24 21 20 19 15 12 13 14 16 17 18 18 19 21 23 26 29 29 27 28 29 28 29 30 31 32 35 39 43 43 42 43 45 46 47 47 47 47 48 49 48 48 48 48 49
13 14 15 17 17 17 15 15 18 18 19 21 22 20 20 19 18 21 23 23 23 23 24 27 30 31 30 29 28 25 21 19 17 15 13 11 10 12 13 13 13 13 14 17 21 25 26 26 26 27 27 28 29 28 29 31 34 38 41 42 43 45 47 47 47 46 44 45 46 46 45 46 46 46
14 14 14 14 14 15 13 13 14 15 15 18 19 19 19 20 18 18 18 19 20 21 21 22 24 24 24 25 26 24 21 19 17 15 13 10 9 9 11 11 12 11 11 12 15 21 25 25 24 25 25 26 28 28 28 29 30 33 36 37 38 42 45 48 48 47 45 45 46 46 46 45 45 44
18 18 18 18 18 19 18 15 14 13 13 16 19 21 22 23 23 21 19 19 20 20 20 21 21 21 21 22 22 22 20 19 18 18 15 12 11 11 11 11 11 11 12 12 13 17 22 23 21 21 23 26 27 28 28 28 28 29 31 32 33 38 43 45 47 49 48 46 45 46 46 46 45 44
17 19 19 18 19 20 19 18 16 15 15 17 19 21 23 25 27 25 23 22 22 21 20 20 20 20 20 20 20 21 20 20 21 21 17 14 14 13 12 11 10 11 12 11 11 15 19 19 17 18 21 23 24 25 26 27 27 27 29 32 31 33 38 40 42 45 47 47 47 46 45 45 44 44
17 19 19 19 19 18 18 19 20 20 21 22 23 23 25 27 28 27 26 26 25 24 23 21 19 18 19 19 20 20 20 21 23 22 19 17 16 15 13 12 12 13 12 9 9 12 15 16 15 15 18 18 17 20 23 24 25 26 28 32 32 31 33 35 36 38 40 42 44 45 46 46 46 45
18 19 20 20 19 19 20 21 22 22 22 23 25 27 28 28 26 24 24 25 25 25 25 23 21 19 18 19 20 20 21 22 23 22 21 20 18 15 14 13 14 14 12 10 10 10 12 14 13 13 16 15 12 15 18 20 23 25 26 29 31 29 29 32 34 35 35 36 38 41 44 46 47 47
18 18 18 17 16 17 19 22 24 25 24 23 23 24 25 26 26 24 24 24 23 23 25 25 24 21 20 20 20 21 21 22 23 23 23 22 21 18 17 16 15 14 12 10 11 11 11 13 13 13 16 14 10 11 14 15 19 23 23 25 28 27 27 27 28 28 29 31 33 35 38 42 44 45
16 16 16 15 15 16 17 19 21 23 25 26 26 24 22 22 22 23 25 25 25 24 24 25 26 25 24 22 20 20 21 21 22 23 23 22 22 21 19 18 17 15 13 12 13 11 10 12 13 13 15 14 10 8 9 10 15 19 21 22 25 25 24 23 23 23 24 26 28 29 31 33 36 39
14 14 15 16 17 17 18 18 19 19 21 24 27 28 26 25 24 24 23 23 23 24 24 25 26 28 28 26 22 20 20 20 20 22 22 22 23 23 22 20 18 15 14 15 15 13 10 11 12 13 14 14 11 7 6 7 10 15 18 20 22 23 22 21 20 19 19 21 23 24 24 24 25 27
13 13 14 14 15 16 16 16 16 16 16 17 18 20 21 22 24 25 25 24 22 23 24 25 25 26 28 28 24 20 18 18 18 20 21 22 24 25 23 20 18 16 15 16 17 16 12 11 12 13 14 14 11 7 5 5 7 10 14 17 20 21 19 18 16 15 14 15 17 16 16 19 21 19
13 12 13 12 11 11 11 11 12 13 13 12 11 12 13 13 16 19 23 24 23 22 22 24 25 23 22 23 22 19 17 18 18 19 22 23 23 24 23 21 19 18 16 16 18 17 14 12 12 13 13 14 11 8 6 5 6 8 10 11 13 15 14 12 11 11 10 9 10 9 10 15 20 18
14 13 14 14 12 11 11 11 12 13 13 12 10 10 11 12 13 15 17 20 22 21 21 22 24 23 20 19 20 19 17 16 15 16 19 22 22 23 23 22 21 19 17 17 18 18 15 13 13 13 13 13 12 9 7 6 6 8 11 11 9 9 10 10 9 8 7 7 7 8 8 10 15 17
15 13 13 13 12 11 12 13 14 14 14 13 11 11 13 14 14 14 15 16 18 19 20 21 22 22 20 18 18 18 16 15 15 14 16 19 22 23 24 23 22 21 19 18 18 17 15 15 14 14 12 11 10 10 10 8 7 8 10 10 9 8 7 7 7 6 6 6 6 7 8 9 11 14
12 11 10 11 10 8 8 9 10 11 12 13 12 12 13 14 15 16 17 18 19 18 17 18 19 19 18 17 17 16 15 14 15 15 15 16 19 22 24 24 24 22 20 20 19 16 16 16 16 15 13 11 10 10 11 10 10 9 8 8 8 7 5 4 4 3 4 4 5 6 8 9 11 12
11 10 9 10 9 8 9 7 5 5 7 9 9 9 10 10 11 12 14 16 19 19 16 14 15 17 17 17 17 16 15 14 14 15 15 14 16 20 23 25 25 23 21 20 20 18 18 18 17 16 15 13 12 12 12 12 10 10 10 8 7 5 4 3 3 3 4 5 6 6 7 8 10 11
9 7 6 7 8 9 11 9 7 5 2 1 3 4 4 4 5 6 8 9 13 17 17 13 13 14 16 17 16 16 16 15 14 15 14 13 16 19 21 22 23 23 21 20 21 21 20 19 18 17 16 15 15 16 16 14 12 12 11 10 8 6 5 5 6 6 7 8 8 8 9 10 10 11
6 4 4 6 8 10 12 11 10 8 4 2 1 1 2 3 5 4 4 5 7 11 13 11 10 12 15 16 15 15 16 16 16 16 15 13 14 15 15 16 17 18 18 18 19 20 21 20 20 20 19 17 16 18 18 16 15 13 12 11 10 9 9 9 10 10 11 11 12 12 11 10 8 9
6 4 3 5 7 9 10 11 11 10 7 4 1 1 4 5 4 5 4 3 5 7 8 9 10 11 13 14 15 15 16 17 16 15 14 14 14 13 13 15 15 15 14 14 16 19 20 20 20 22 22 20 18 18 18 17 16 14 13 12 12 12 12 12 13 13 13 14 14 13 11 9 8 9
7 6 5 5 6 7 8 9 9 9 8 6 3 1 1 3 3 1 3 2 3 6 6 7 8 10 13 15 15 15 17 19 17 15 14 15 15 14 15 15 14 12 12 12 12 15 16 15 15 17 19 19 18 16 16 16 15 15 14 14 15 15 15 15 14 14 14 14 12 11 11 11 10 11
8 7 6 6 7 7 8 8 8 7 7 7 6 4 2 1 1 2 2 2 5 7 8 8 7 8 12 13 12 12 16 18 18 16 14 12 11 11 14 15 14 13 12 11 12 15 15 14 13 13 14 13 13 12 12 13 13 14 14 15 15 15 15 14 13 13 12 12 11 11 12 12 12 13
6 6 6 6 6 7 7 7 7 6 6 6 6 5 4 4 3 2 3 4 6 7 8 8 7 8 10 11 10 10 13 15 15 13 9 6 7 11 14 14 14 14 13 13 14 16 16 15 14 14 13 11 10 9 10 11 12 12 12 12 13 13 12 12 11 11 11 11 11 12 13 14 15 15
4 4 4 5 5 6 6 7 6 6 5 4 5 5 4 3 3 5 5 4 5 7 8 8 9 10 12 12 10 9 11 13 13 11 7 5 8 12 15 15 15 16 15 14 13 13 13 12 12 13 13 12 10 10 10 11 11 10 10 11 12 12 12 12 12 12 12 13 14 15 15 16 18 18
2 3 4 5 6 6 6 6 6 5 4 3 3 3 3 2 2 3 4 4 4 6 8 9 10 11 12 13 12 12 13 13 12 10 8 8 8 11 14 15 16 17 15 13 11 10 10 10 10 11 12 12 12 12 12 12 12 12 13 13 13 14 14 14 15 15 15 15 16 17 17 18 19 20
2 4 5 6 6 6 6 6 5 4 3 3 2 2 2 2 1 0 1 2 3 5 7 7 8 9 10 11 12 13 12 11 9 9 9 10 10 10 11 12 13 14 12 11 10 11 11 11 11 12 12 13 14 14 15 15 15 16 16 16 16 16 16 16 16 16 16 17 17 18 18 19 20 21
3 4 5 6 6 5 5 5 4 3 3 2 1 1 1 1 1 1 1 2 3 4 5 6 7 8 9 9 10 10 9 9 9 9 10 11 12 11 11 11 11 12 12 12 12 13 13 14 14 14 14 15 15 15 15 15 15 15 15 15 15 16 16 16 16 17 17 18 18 18 18 19 20 20
3 4 5 6 5 5 4 4 4 3 2 2 1 1 1 1 1 1 1 1 2 3 4 5 6 8 8 9 9 10 10 11 11 11 11 12 12 12 13 13 13 13 14 14 15 15 15 15 15 15 15 16 16 16 16 16 15 15 16 15 15 14 15 15 15 16 17 16 15 15 16 16 17 18
Wind_Direction
263 264 264 263 263 262 263 264 264 262 260 259 262 263 262 268 278 281 282 280 275 272 271 268 264 261 260 257 255 255 255 253 254 254 251 250 250 248 246 248 249 250 253 252 247 242 239 238 240 242 243 242 245 247 248 249 250 249 247 245 245 245 243 238 236 237 236 230 224 220 217 218 219 218
263 263 263 262 261 262 263 264 263 262 261 260 261 261 260 262 268 273 276 276 273 272 272 269 264 259 254 252 251 249 249 249 250 251 250 249 251 250 248 248 251 252 253 253 250 245 241 239 238 239 241 240 242 246 248 249 249 249 249 248 245 244 243 242 237 235 234 232 230 226 219 217 219 218
261 262 263 262 261 262 264 263 261 259 258 259 259 259 258 259 262 265 269 272 270 268 269 269 266 262 256 251 251 250 247 246 248 250 250 248 249 251 249 248 249 250 252 254 254 251 245 241 238 238 239 240 240 242 246 249 249 249 249 249 247 244 242 241 238 235 232 232 235 232 223 219 221 219
257 258 260 259 258 260 262 262 262 260 258 257 258 258 258 258 259 260 262 267 268 266 267 270 269 268 264 257 253 253 250 247 246 248 249 250 250 250 251 250 249 250 249 251 254 254 250 246 242 239 239 240 240 240 242 246 250 251 251 250 248 246 243 240 238 237 234 231 233 233 227 223 222 220
255 257 259 259 257 256 256 258 259 260 259 258 258 258 258 258 257 258 259 263 267 268 269 270 271 272 271 265 259 256 253 249 248 250 251 252 252 252 251 251 251 251 251 250 251 252 252 250 247 243 241 240 240 240 240 242 246 249 251 252 250 248 245 241 239 238 236 233 230 229 230 229 226 223
257 257 259 260 259 259 257 256 257 258 258 260 260 258 258 257 255 256 259 260 263 267 267 266 268 271 272 271 266 261 258 255 255 258 258 256 256 254 253 253 253 252 254 255 252 251 250 249 249 247 245 243 242 241 240 241 242 244 247 252 253 251 247 243 240 237 236 235 231 228 228 228 228 226
259 257 257 257 258 261 260 258 259 260 261 261 261 259 257 257 257 256 259 262 265 269 270 266 265 266 266 268 269 266 264 262 262 264 263 261 260 257 255 255 255 254 255 257 256 254 250 248 247 248 247 246 245 243 242 241 242 242 244 248 251 251 249 246 241 237 234 234 234 231 229 228 228 228
264 258 255 254 254 257 261 262 262 264 264 264 263 263 261 260 260 260 261 263 266 271 274 269 266 266 266 268 269 268 267 265 264 266 266 265 264 261 259 259 259 257 254 254 256 256 253 248 245 245 246 246 245 244 243 241 241 241 242 243 246 249 250 247 243 239 235 232 232 232 231 231 229 228
271 265 260 255 253 255 259 261 262 262 262 263 263 263 263 261 262 262 262 261 262 265 268 267 266 266 267 269 270 268 267 266 266 267 268 268 269 266 262 262 262 261 258 255 255 256 256 252 247 244 243 243 242 241 241 240 240 240 241 242 242 245 248 248 244 240 237 233 232 232 232 231 230 228
260 260 258 255 252 252 255 257 258 258 258 260 260 260 260 260 261 263 263 261 260 260 262 263 265 267 267 269 270 265 265 267 269 271 271 271 271 268 264 261 261 263 261 258 258 258 258 256 250 246 243 242 242 240 239 239 238 237 239 241 242 241 244 246 244 240 239 236 233 233 232 231 230 228
247 248 249 249 248 249 251 252 254 255 255 257 258 259 260 260 260 262 262 262 262 262 263 264 266 268 269 271 271 267 266 269 271 272 272 271 269 265 262 259 260 264 262 259 260 259 256 253 251 250 247 244 243 243 240 238 237 234 235 238 241 240 239 242 242 239 238 238 235 232 232 231 229 227
250 249 248 249 249 249 250 252 253 253 254 255 257 258 259 258 258 259 260 262 263 262 262 262 264 267 270 272 273 271 269 269 268 267 267 268 266 262 259 258 260 264 263 260 261 259 254 251 251 253 252 248 245 245 243 241 238 234 233 234 238 239 237 238 240 238 236 237 236 233 231 231 230 228
264 259 256 254 253 252 252 252 251 250 250 253 257 257 255 255 256 258 260 261 261 261 261 263 264 267 268 268 268 269 270 270 268 266 265 264 262 261 260 260 260 262 262 261 262 260 257 255 254 254 254 251 247 246 246 245 241 236 232 232 235 237 236 235 237 237 235 235 237 235 232 231 230 229
278 275 271 267 264 261 256 252 249 248 248 251 256 257 256 255 256 258 260 260 260 260 262 265 267 266 264 263 266 268 272 277 277 271 266 264 262 260 260 261 260 258 258 261 262 261 261 261 259 256 254 251 248 247 246 246 245 241 235 232 233 235 234 233 234 236 234 233 234 235 233 231 229 228
280 280 276 273 270 263 256 251 249 248 248 251 256 257 258 258 259 259 260 260 260 260 262 265 266 264 262 264 267 265 270 284 285 271 262 261 260 257 257 258 259 255 254 258 261 261 263 264 261 256 253 250 248 247 246 245 246 245 239 234 234 234 232 230 231 233 233 231 232 233 233 232 230 227
281 281 278 273 267 259 255 254 252 252 257 267 274 271 263 260 260 258 257 258 259 260 262 264 265 267 267 267 268 266 274 292 290 265 256 258 257 255 254 254 255 254 254 257 260 262 264 264 261 257 252 249 247 246 245 244 244 244 240 236 236 236 233 229 228 230 231 231 231 232 232 232 231 229
280 280 278 274 266 259 257 255 255 262 271 279 283 279 271 265 260 255 252 252 253 256 259 261 264 267 269 269 269 271 282 299 298 269 255 257 255 252 250 250 252 255 258 259 260 263 264 262 261 257 252 249 247 244 243 242 242 241 236 232 234 237 236 232 230 230 231 231 230 231 232 232 232 231
277 276 276 274 268 264 263 260 260 264 267 270 271 270 273 275 263 252 248 247 247 249 252 257 260 262 263 265 269 275 285 297 302 288 261 253 253 250 247 249 253 257 260 261 261 263 262 261 262 259 252 251 250 245 242 242 241 239 234 227 228 234 236 234 231 231 232 232 229 228 230 231 231 231
275 271 269 268 267 267 266 263 263 263 263 269 271 271 279 285 267 249 245 246 248 250 250 252 256 259 261 263 267 275 282 286 295 297 274 254 252 253 252 254 256 257 260 260 259 261 261 259 260 259 255 255 254 248 242 241 241 239 234 227 224 227 231 231 231 231 231 230 229 227 226 227 228 228
289 285 280 278 279 276 266 257 261 266 268 270 269 270 279 285 271 251 247 250 253 254 255 256 257 258 260 262 263 268 273 275 281 287 278 257 248 252 252 250 252 255 258 260 258 258 258 257 256 256 257 257 256 251 243 238 238 239 237 231 226 225 226 227 228 228 227 225 225 225 224 224 225 226
301 305 305 303 302 296 283 269 265 268 268 267 267 269 272 273 270 261 256 257 257 256 257 259 262 263 261 260 261 261 263 265 268 270 265 250 243 251 253 253 257 259 260 266 263 256 253 252 253 256 257 256 255 253 246 237 234 237 238 234 229 226 224 224 224 224 223 221 221 222 223 223 223 223
302 303 303 299 296 293 290 286 279 271 268 266 265 266 265 264 262 258 256 258 258 257 256 256 258 260 259 259 259 256 253 253 254 255 255 253 252 256 261 267 269 267 265 266 264 254 247 246 252 255 253 250 249 248 246 239 233 231 230 227 227 227 226 224 223 221 219 217 216 218 220 221 222 222
309 304 299 295 292 289 286 283 280 275 269 265 263 264 266 265 260 256 256 259 258 256 255 255 255 255 254 253 254 253 247 243 245 248 249 250 248 246 254 264 264 262 264 262 258 254 245 242 251 253 243 240 242 242 239 236 232 227 222 218 218 221 223 224 225 224 222 219 216 216 217 218 217 218
302 296 290 284 281 281 279 276 276 273 268 266 265 262 262 265 264 261 258 259 258 256 254 254 255 256 253 249 249 248 243 239 241 242 240 241 245 241 243 249 250 253 261 262 260 261 250 245 252 247 233 232 238 234 229 226 224 221 217 214 212 212 216 221 223 223 224 223 222 222 223 223 222 221
292 290 286 281 275 271 269 267 268 268 266 265 265 260 257 262 269 270 265 261 259 257 254 253 254 257 255 249 245 244 241 238 238 238 234 236 243 242 239 243 247 254 262 262 261 263 254 247 246 231 221 227 233 224 216 213 212 210 210 212 210 208 212 219 221 222 222 223 224 225 225 227 228 229
301 295 290 285 280 274 269 265 264 265 264 263 264 263 259 259 263 266 266 265 263 260 257 254 252 252 253 252 247 243 241 238 236 236 235 235 239 241 241 243 247 253 257 254 255 261 256 248 240 224 218 226 232 220 208 202 200 197 197 202 202 200 205 212 215 216 216 216 218 220 222 223 225 228
311 304 296 291 288 284 279 274 269 268 266 262 261 261 259 257 256 257 260 262 261 259 257 255 251 246 245 250 251 245 242 240 236 235 236 236 237 237 237 239 244 248 246 238 240 251 254 246 239 230 226 230 234 221 205 196 190 187 186 189 193 196 201 204 204 203 203 205 207 210 215 218 220 223
317 309 302 296 292 288 284 280 275 270 266 262 259 258 258 257 255 253 254 256 257 256 254 252 250 245 243 246 250 246 241 239 238 236 235 236 235 231 229 234 241 245 240 230 229 237 243 237 235 235 231 233 238 233 212 193 182 180 181 182 185 190 194 196 197 197 197 199 200 203 209 211 212 215
326 319 311 299 289 284 282 282 280 275 269 265 263 261 260 261 259 256 253 253 255 254 252 250 250 248 245 244 245 243 239 237 237 236 233 234 235 230 226 229 237 242 237 226 225 232 234 226 229 233 230 229 237 244 232 203 175 172 179 181 182 185 187 188 189 189 187 188 190 196 205 205 202 204
334 333 329 317 302 291 285 283 282 276 266 259 257 256 254 257 260 258 254 251 251 251 251 249 249 251 251 246 242 240 239 237 238 237 233 231 231 229 224 223 229 236 232 222 223 229 228 219 223 231 228 223 227 233 231 220 193 172 173 178 179 178 176 174 177 179 179 179 180 182 191 199 202 202
345 343 338 329 317 303 294 286 278 273 267 260 258 260 259 258 260 260 254 249 248 250 250 248 247 250 253 246 236 234 237 235 235 236 234 229 225 222 220 219 225 229 227 223 226 227 219 213 219 227 228 224 221 216 212 215 205 178 167 166 167 167 166 167 170 174 178 183 185 188 189 195 204 209
344 339 333 327 317 305 296 284 271 268 269 267 268 271 268 265 266 265 256 247 246 247 246 245 246 248 249 239 227 229 236 233 226 228 232 227 220 216 214 216 221 223 222 227 230 220 205 208 217 219 223 228 225 216 209 204 194 180 172 166 163 161 159 162 166 175 188 198 203 207 208 205 207 213
333 327 327 329 331 334 328 302 276 269 268 264 265 270 269 265 265 262 256 249 246 244 242 240 238 239 238 228 219 223 233 232 223 220 222 222 218 216 216 217 220 219 218 225 228 212 196 203 214 215 215 217 214 212 214 207 190 179 176 169 164 162 159 160 166 177 195 209 216 220 222 222 220 220
321 319 325 333 344 3 11 359 322 295 280 263 260 266 271 272 267 259 256 251 243 238 238 238 234 231 227 219 218 223 227 227 222 217 216 220 222 222 221 221 221 220 217 221 225 217 202 199 206 211 213 211 201 198 204 208 198 185 181 179 176 177 184 199 216 229 236 241 242 241 242 242 239 236
319 327 342 357 14 28 33 28 16 4 357 256 255 267 279 305 299 268 259 255 238 227 226 229 230 228 222 217 218 219 218 220 223 218 214 218 223 223 221 220 221 221 219 219 222 224 219 211 208 211 214 209 197 190 193 202 206 202 197 195 196 203 215 229 240 244 246 247 250 257 267 270 264 257
315 338 3 20 31 37 40 40 34 31 51 105 169 238 252 318 343 333 283 258 228 214 216 223 226 224 221 218 218 218 220 223 221 214 206 205 211 215 216 219 223 225 223 220 219 221 223 221 218 219 218 209 197 194 196 200 205 208 208 208 214 224 234 241 243 243 243 246 252 261 269 268 259 252
292 310 339 10 22 26 31 38 38 35 41 63 100 238 250 267 312 8 4 304 232 206 211 223 227 225 220 217 218 222 224 218 210 203 198 196 199 208 217 224 228 223 215 216 220 218 219 221 221 220 217 209 200 199 200 199 202 210 219 227 233 239 243 246 247 244 244 247 252 256 255 246 232 233
281 286 300 334 356 1 8 21 29 32 36 45 52 41 294 264 253 339 20 356 199 184 181 194 210 217 214 214 218 220 215 207 199 193 193 196 202 212 218 220 218 206 196 205 213 208 205 206 208 210 211 208 205 206 207 205 206 213 222 232 239 244 247 249 248 247 247 249 250 247 244 238 232 233
284 287 295 316 332 338 345 358 9 17 25 34 41 52 62 60 218 215 194 144 146 151 152 155 171 196 204 204 205 203 201 198 194 191 194 200 206 209 209 207 201 192 191 198 198 190 187 188 188 192 200 206 211 218 221 220 220 222 224 231 238 243 245 246 244 242 243 245 243 243 245 244 241 240
291 299 309 318 326 334 338 343 350 356 8 20 26 37 58 68 83 137 171 170 161 160 161 159 163 177 184 180 178 184 191 193 192 194 201 206 194 193 200 205 201 196 196 199 196 192 191 193 194 195 200 207 216 224 225 222 221 220 222 225 229 230 232 233 233 233 235 236 239 244 249 252 253 253
282 301 323 329 331 335 338 340 340 340 350 1 4 14 34 52 78 100 116 143 168 174 176 173 173 177 179 178 181 191 195 193 192 196 204 201 188 189 196 203 204 204 204 204 202 202 202 202 202 203 206 211 218 224 227 227 225 222 223 226 227 229 232 234 235 236 237 240 245 251 256 261 264 265
284 316 326 326 325 323 326 332 334 328 329 336 343 358 13 16 46 87 99 113 142 161 169 171 174 178 182 184 188 192 192 195 199 203 207 211 210 204 201 200 201 205 208 207 205 206 209 209 208 208 210 216 221 225 231 236 236 235 236 238 241 245 249 251 254 256 257 259 261 264 266 267 269 270
315 336 333 328 326 319 316 322 326 321 314 308 309 337 355 347 342 44 136 140 138 147 155 159 166 177 183 186 188 189 191 200 211 215 215 218 221 218 211 205 201 202 206 210 211 213 217 221 223 223 223 226 229 231 234 237 238 239 240 241 243 248 252 255 259 261 263 264 265 265 265 264 265 269
309 335 341 339 334 326 321 319 317 314 311 301 290 308 320 294 282 274 221 190 179 176 173 170 175 182 184 185 190 196 203 210 216 218 217 216 213 210 209 209 208 210 215 219 222 224 225 226 227 229 231 232 233 235 237 239 241 242 244 245 246 249 252 256 258 260 260 260 260 260 261 262 263 265
296 334 347 346 338 330 327 324 320 314 309 306 297 288 280 264 248 249 237 209 200 199 195 191 193 194 194 192 194 199 204 209 211 212 214 213 210 208 210 215 219 223 224 224 226 229 231 231 231 233 234 237 240 242 244 246 247 249 251 252 252 252 252 253 255 255 256 256 257 259 261 261 262 264
Height
1443 1444 1445 1445 1445 1446 1447 1448 1449 1450 1451 1453 1453 1454 1454 1454 1452 1450 1448 1445 1444 1445 1446 1445 1444 1447 1449 1449 1450 1451 1452 1454 1456 1456 1458 1458 1459 1461 1463 1464 1466 1467 1469 1470 1472 1474 1476 1478 1480 1482 1484 1486 1488 1490 1492 1494 1497 1499 1501 1504 1506 1509 1511 1512 1514 1517 1520 1522 1523 1524 1526 1528 1530 1532
1440 1440 1441 1441 1442 1442 1444 1444 1445 1447 1448 1449 1450 1450 1451 1451 1450 1449 1447 1443 1442 1443 1444 1443 1443 1444 1445 1445 1445 1446 1447 1449 1451 1452 1453 1454 1455 1456 1457 1459 1461 1463 1464 1466 1467 1469 1471 1474 1476 1478 1480 1482 1484 1485 1487 1489 1491 1494 1496 1499 1502 1505 1507 1509 1510 1513 1516 1518 1520 1522 1524 1526 1527 1529
1437 1437 1437 1438 1438 1439 1440 1441 1442 1443 1444 1445 1446 1446 1447 1447 1447 1447 1446 1441 1438 1441 1441 1440 1441 1441 1441 1442 1442 1442 1443 1444 1446 1448 1448 1450 1451 1452 1452 1454 1455 1457 1459 1461 1462 1464 1466 1468 1471 1473 1475 1477 1479 1481 1483 1485 1486 1488 1491 1493 1496 1500 1502 1505 1507 1508 1511 1514 1517 1519 1520 1522 1524 1526
1433 1433 1433 1434 1435 1436 1437 1437 1438 1439 1440 1441 1442 1442 1443 1444 1443 1444 1444 1439 1434 1437 1439 1438 1438 1439 1439 1439 1439 1438 1439 1440 1442 1443 1444 1445 1446 1447 1448 1449 1451 1452 1454 1456 1457 1459 1461 1463 1465 1468 1470 1472 1474 1476 1478 1481 1482 1483 1485 1487 1490 1494 1497 1500 1503 1504 1506 1509 1512 1514 1516 1518 1520 1523
1430 1430 1430 1430 1431 1432 1433 1433 1434 1435 1436 1437 1438 1439 1439 1440 1440 1440 1441 1438 1433 1433 1437 1436 1435 1436 1437 1436 1436 1436 1435 1436 1438 1439 1439 1441 1442 1443 1443 1444 1446 1447 1449 1450 1452 1454 1456 1459 1460 1462 1464 1466 1469 1471 1473 1476 1478 1479 1481 1482 1485 1488 1491 1495 1498 1500 1502 1504 1507 1510 1512 1515 1517 1519
1426 1426 1426 1427 1428 1429 1429 1429 1430 1431 1432 1433 1434 1434 1435 1435 1436 1436 1436 1436 1432 1431 1433 1434 1432 1433 1434 1433 1433 1434 1433 1433 1434 1435 1435 1437 1438 1439 1440 1440 1441 1442 1444 1445 1447 1449 1451 1453 1455 1457 1459 1461 1463 1466 1468 1471 1473 1475 1477 1478 1479 1482 1485 1490 1493 1496 1498 1500 1502 1505 1507 1510 1513 1515
1421 1422 1422 1423 1424 1425 1425 1426 1427 1427 1428 1429 1429 1430 1431 1431 1431 1432 1432 1432 1430 1428 1428 1430 1429 1430 1430 1429 1429 1430 1430 1431 1431 1431 1431 1433 1434 1434 1435 1436 1437 1438 1440 1441 1443 1444 1445 1447 1450 1452 1453 1455 1457 1459 1462 1465 1468 1470 1472 1474 1475 1477 1480 1484 1488 1491 1493 1495 1498 1500 1501 1504 1508 1511
1416 1417 1417 1418 1420 1421 1422 1422 1423 1423 1424 1424 1425 1425 1426 1427 1427 1428 1429 1428 1428 1426 1424 1424 1425 1426 1427 1426 1425 1426 1426 1427 1427 1427 1428 1428 1429 1430 1431 1432 1433 1434 1436 1437 1438 1440 1441 1442 1444 1446 1447 1448 1450 1453 1456 1459 1462 1465 1467 1469 1471 1473 1474 1477 1482 1485 1489 1491 1493 1495 1497 1500 1503 1506
1413 1413 1413 1415 1416 1417 1418 1418 1419 1419 1420 1421 1421 1422 1422 1423 1423 1424 1425 1425 1425 1424 1422 1420 1420 1422 1423 1423 1422 1422 1422 1422 1423 1424 1424 1424 1425 1425 1426 1427 1428 1430 1432 1433 1434 1435 1436 1437 1439 1440 1441 1442 1443 1446 1449 1452 1455 1459 1462 1464 1467 1468 1470 1472 1475 1480 1483 1486 1488 1491 1493 1495 1497 1500
1409 1410 1410 1411 1412 1413 1413 1414 1414 1415 1416 1417 1417 1418 1418 1419 1420 1421 1421 1421 1421 1421 1420 1417 1416 1417 1418 1419 1418 1418 1419 1419 1419 1419 1420 1420 1420 1421 1421 1422 1423 1425 1427 1428 1429 1431 1432 1433 1434 1435 1436 1437 1438 1440 1442 1445 1448 1452 1456 1459 1461 1464 1466 1467 1470 1474 1477 1480 1483 1486 1488 1490 1492 1495
1405 1405 1406 1406 1407 1408 1409 1409 1410 1411 1412 1413 1413 1414 1415 1416 1417 1417 1417 1418 1418 1417 1416 1415 1413 1413 1413 1414 1413 1413 1415 1416 1415 1415 1415 1414 1415 1416 1416 1417 1419 1420 1422 1423 1424 1426 1427 1428 1429 1430 1431 1432 1433 1434 1436 1439 1441 1444 1448 1452 1455 1458 1461 1463 1465 1468 1471 1475 1478 1481 1483 1485 1488 1490
1400 1401 1401 1402 1402 1403 1404 1405 1406 1407 1408 1409 1409 1410 1412 1412 1413 1413 1413 1414 1414 1413 1412 1411 1410 1409 1409 1409 1409 1409 1410 1411 1410 1411 1411 1409 1410 1411 1412 1413 1414 1415 1416 1418 1420 1421 1422 1423 1424 1425 1425 1426 1428 1429 1431 1433 1435 1437 1441 1445 1449 1452 1455 1458 1460 1463 1466 1469 1473 1476 1479 1481 1483 1486
1396 1396 1397 1397 1398 1398 1399 1400 1402 1403 1404 1405 1405 1406 1407 1408 1409 1409 1409 1409 1409 1409 1408 1407 1407 1407 1405 1405 1405 1406 1406 1406 1405 1406 1406 1405 1405 1407 1407 1408 1410 1411 1412 1413 1414 1416 1417 1418 1418 1419 1419 1421 1423 1424 1425 1427 1429 1431 1434 1438 1442 1445 1449 1452 1455 1457 1461 1464 1467 1471 1474 1476 1479 1481
1393 1393 1393 1393 1394 1394 1395 1396 1398 1399 1400 1401 1402 1402 1403 1404 1404 1405 1405 1405 1404 1405 1404 1403 1403 1403 1402 1401 1403 1403 1402 1402 1401 1401 1401 1401 1401 1403 1403 1403 1405 1406 1407 1408 1408 1410 1412 1413 1413 1413 1413 1415 1417 1419 1420 1422 1424 1426 1429 1432 1436 1440 1443 1446 1449 1452 1455 1459 1462 1466 1469 1472 1474 1476
1391 1391 1391 1391 1391 1391 1392 1393 1394 1395 1397 1398 1399 1399 1399 1400 1400 1401 1400 1400 1400 1400 1400 1399 1400 1400 1398 1398 1400 1399 1399 1398 1396 1394 1395 1397 1397 1398 1398 1398 1399 1401 1402 1403 1403 1404 1406 1407 1407 1407 1408 1410 1412 1413 1415 1418 1420 1422 1424 1427 1431 1434 1438 1441 1444 1446 1450 1453 1457 1460 1463 1467 1469 1471
1388 1388 1388 1388 1388 1388 1389 1390 1391 1392 1393 1393 1394 1395 1395 1396 1396 1397 1397 1396 1396 1396 1396 1396 1396 1396 1395 1395 1395 1396 1395 1393 1390 1388 1390 1393 1394 1394 1395 1394 1394 1396 1398 1398 1398 1399 1401 1402 1401 1401 1403 1405 1406 1408 1410 1413 1415 1417 1420 1422 1426 1429 1432 1435 1438 1441 1444 1447 1451 1454 1458 1461 1464 1466
1386 1385 1385 1385 1385 1385 1387 1388 1388 1388 1389 1389 1390 1390 1391 1391 1391 1391 1392 1392 1392 1392 1393 1392 1392 1392 1392 1392 1391 1392 1393 1390 1387 1386 1387 1388 1390 1391 1391 1391 1391 1393 1393 1394 1394 1394 1395 1396 1396 1396 1398 1400 1400 1402 1405 1407 1410 1412 1415 1417 1420 1423 1426 1429 1432 1435 1438 1441 1445 1448 1452 1455 1459 1462
1383 1383 1383 1382 1382 1382 1383 1384 1385 1385 1386 1386 1386 1387 1387 1386 1386 1386 1387 1388 1388 1389 1389 1389 1388 1388 1390 1389 1388 1389 1390 1388 1386 1385 1385 1386 1387 1387 1388 1388 1389 1390 1390 1391 1391 1390 1390 1391 1391 1391 1393 1395 1395 1397 1400 1402 1405 1407 1409 1412 1415 1418 1421 1424 1427 1430 1433 1436 1439 1443 1446 1449 1453 1456
1380 1380 1380 1380 1379 1379 1380 1381 1381 1382 1382 1383 1383 1382 1382 1382 1381 1382 1383 1384 1384 1385 1385 1385 1384 1384 1386 1386 1386 1387 1387 1386 1385 1384 1384 1384 1385 1386 1386 1386 1387 1387 1387 1388 1388 1386 1385 1387 1387 1387 1389 1390 1390 1392 1395 1397 1399 1402 1404 1407 1410 1414 1417 1419 1422 1425 1428 1432 1435 1438 1441 1443 1447 1450
1378 1378 1378 1377 1377 1376 1377 1378 1378 1379 1379 1380 1379 1378 1378 1378 1378 1378 1379 1380 1381 1381 1381 1381 1381 1381 1382 1383 1383 1384 1384 1384 1384 1383 1383 1383 1383 1384 1384 1384 1384 1384 1384 1384 1385 1383 1383 1383 1384 1384 1385 1386 1386 1387 1390 1392 1395 1397 1400 1402 1405 1409 1412 1415 1418 1421 1424 1427 1430 1433 1436 1439 1442 1445
1377 1376 1376 1376 1375 1375 1375 1375 1376 1376 1376 1376 1376 1375 1375 1375 1375 1376 1376 1377 1378 1378 1378 1378 1378 1378 1379 1379 1380 1381 1382 1382 1382 1382 1382 1382 1382 1382 1382 1382 1382 1382 1382 1382 1382 1382 1381 1381 1382 1382 1383 1383 1383 1384 1385 1388 1390 1393 1395 1398 1401 1404 1407 1410 1413 1416 1419 1423 1426 1429 1432 1435 1438 1441
1375 1374 1374 1374 1374 1373 1372 1373 1373 1373 1374 1373 1373 1372 1372 1372 1372 1372 1374 1374 1375 1375 1375 1375 1375 1375 1376 1376 1377 1377 1378 1379 1380 1380 1380 1380 1380 1380 1380 1380 1380 1379 1380 1380 1381 1380 1379 1380 1381 1381 1381 1381 1381 1381 1382 1384 1386 1389 1391 1394 1397 1399 1402 1405 1408 1412 1415 1418 1421 1424 1427 1430 1433 1436
1373 1372 1371 1371 1371 1370 1370 1370 1370 1370 1371 1370 1370 1369 1369 1368 1368 1369 1370 1371 1371 1371 1371 1372 1372 1372 1373 1373 1374 1374 1375 1376 1376 1377 1378 1378 1378 1378 1379 1379 1378 1378 1378 1379 1380 1379 1378 1379 1379 1379 1379 1379 1378 1379 1380 1381 1383 1385 1388 1390 1393 1396 1398 1401 1404 1407 1410 1414 1417 1419 1422 1425 1428 1431
1371 1370 1369 1368 1368 1367 1367 1367 1367 1367 1367 1367 1366 1366 1366 1365 1364 1365 1366 1367 1367 1368 1368 1368 1369 1369 1369 1370 1370 1371 1372 1373 1373 1374 1375 1376 1376 1377 1377 1378 1377 1377 1378 1378 1378 1377 1377 1378 1378 1378 1377 1377 1377 1377 1377 1378 1380 1382 1385 1387 1390 1392 1395 1397 1400 1403 1407 1410 1413 1416 1418 1421 1424 1426
1367 1366 1365 1365 1364 1364 1364 1363 1363 1363 1363 1363 1362 1362 1362 1361 1361 1362 1362 1362 1363 1364 1364 1365 1365 1366 1366 1367 1367 1368 1368 1369 1370 1371 1372 1373 1374 1375 1375 1376 1376 1376 1376 1377 1376 1376 1376 1376 1377 1377 1377 1377 1376 1376 1376 1376 1378 1380 1382 1384 1387 1389 1391 1394 1397 1400 1403 1405 1408 1411 1414 1417 1419 1422
1364 1363 1362 1361 1361 1360 1360 1360 1359 1359 1359 1359 1358 1358 1358 1358 1359 1359 1359 1359 1359 1360 1360 1361 1361 1362 1363 1363 1364 1365 1365 1366 1367 1368 1369 1371 1372 1372 1373 1374 1374 1375 1375 1375 1375 1375 1375 1375 1375 1376 1376 1376 1376 1375 1375 1375 1376 1378 1380 1383 1385 1387 1389 1391 1394 1397 1399 1402 1404 1407 1410 1412 1414 1416
1361 1359 1358 1358 1357 1357 1356 1356 1355 1355 1355 1354 1354 1354 1355 1355 1355 1355 1355 1355 1356 1356 1356 1357 1357 1358 1359 1360 1360 1361 1362 1363 1364 1365 1366 1368 1369 1370 1371 1372 1372 1373 1374 1374 1374 1374 1374 1374 1375 1375 1375 1376 1376 1376 1376 1375 1376 1377 1378 1381 1383 1386 1388 1390 1392 1395 1397 1400 1401 1404 1406 1408 1410 1412
1358 1357 1356 1355 1354 1353 1352 1352 1351 1351 1350 1350 1350 1350 1351 1351 1351 1351 1351 1352 1352 1352 1353 1353 1353 1354 1355 1356 1357 1358 1360 1361 1362 1363 1364 1365 1366 1368 1369 1369 1370 1371 1372 1372 1372 1372 1373 1373 1374 1374 1375 1375 1376 1376 1376 1376 1376 1377 1378 1380 1382 1385 1387 1389 1391 1393 1396 1399 1400 1402 1403 1405 1407 1409
1356 1355 1354 1352 1351 1350 1349 1348 1348 1347 1347 1347 1347 1347 1347 1347 1347 1347 1347 1348 1349 1349 1349 1350 1350 1350 1351 1353 1354 1356 1357 1358 1359 1360 1361 1363 1364 1365 1367 1368 1368 1369 1370 1370 1370 1371 1372 1372 1373 1374 1374 1375 1376 1376 1377 1377 1377 1378 1379 1380 1382 1384 1386 1388 1390 1393 1395 1397 1399 1400 1401 1402 1405 1407
1354 1353 1351 1350 1348 1348 1347 1346 1345 1345 1344 1344 1344 1344 1344 1344 1343 1343 1344 1344 1345 1346 1346 1347 1347 1348 1349 1350 1352 1354 1354 1355 1356 1357 1358 1360 1361 1363 1364 1365 1366 1367 1368 1369 1369 1370 1371 1371 1372 1372 1373 1374 1375 1376 1377 1377 1378 1378 1380 1381 1382 1384 1385 1387 1389 1391 1393 1395 1396 1397 1399 1400 1403 1405
1352 1351 1349 1348 1346 1346 1345 1344 1343 1343 1342 1342 1342 1342 1341 1341 1341 1341 1341 1341 1342 1342 1343 1344 1344 1345 1347 1348 1350 1351 1352 1353 1354 1355 1356 1357 1359 1360 1362 1364 1365 1365 1366 1367 1368 1368 1369 1370 1371 1372 1372 1373 1374 1376 1376 1377 1378 1379 1380 1381 1383 1384 1385 1387 1388 1390 1392 1393 1394 1396 1398 1399 1401 1404
1351 1350 1348 1347 1345 1344 1342 1341 1341 1340 1340 1340 1340 1339 1339 1339 1339 1339 1338 1338 1339 1339 1340 1341 1342 1343 1344 1346 1347 1349 1349 1351 1352 1353 1353 1355 1356 1358 1360 1361 1362 1364 1365 1366 1366 1367 1368 1369 1370 1371 1372 1373 1374 1375 1376 1377 1378 1379 1380 1381 1383 1384 1385 1386 1388 1389 1391 1392 1394 1396 1398 1399 1400 1402
1350 1349 1348 1346 1344 1342 1340 1339 1338 1338 1337 1337 1337 1337 1337 1336 1336 1336 1336 1336 1336 1337 1338 1338 1339 1340 1342 1343 1345 1346 1347 1349 1350 1351 1352 1353 1355 1356 1358 1359 1360 1362 1363 1364 1365 1366 1367 1368 1370 1371 1371 1373 1374 1375 1376 1377 1378 1379 1380 1381 1383 1384 1385 1386 1388 1389 1391 1392 1394 1395 1397 1398 1399 1401
1350 1349 1347 1345 1343 1341 1339 1337 1336 1336 1335 1335 1335 1335 1335 1334 1334 1333 1333 1332 1333 1334 1335 1336 1337 1338 1340 1341 1343 1344 1346 1347 1348 1350 1351 1352 1353 1354 1356 1357 1359 1360 1362 1363 1364 1365 1366 1367 1368 1370 1371 1372 1373 1375 1376 1377 1378 1378 1380 1381 1383 1384 1385 1387 1388 1389 1391 1392 1393 1394 1396 1397 1398 1400
1350 1348 1346 1345 1343 1341 1339 1337 1336 1335 1334 1334 1334 1334 1334 1333 1332 1331 1330 1330 1330 1332 1333 1334 1335 1337 1338 1340 1341 1343 1344 1346 1347 1348 1350 1351 1352 1353 1354 1356 1357 1359 1360 1361 1362 1364 1365 1366 1367 1369 1370 1371 1373 1374 1375 1377 1377 1378 1380 1381 1382 1384 1385 1386 1388 1389 1390 1391 1392 1393 1394 1396 1397 1398
1349 1347 1346 1345 1343 1341 1339 1338 1337 1336 1334 1334 1334 1333 1333 1332 1331 1330 1330 1329 1329 1330 1332 1333 1334 1335 1337 1338 1340 1341 1343 1344 1345 1347 1348 1349 1350 1352 1354 1355 1356 1357 1358 1360 1361 1362 1363 1364 1365 1367 1368 1370 1371 1372 1374 1375 1376 1377 1379 1380 1382 1383 1385 1386 1387 1388 1389 1390 1391 1392 1393 1394 1395 1396
1348 1347 1345 1344 1343 1341 1340 1338 1337 1336 1335 1334 1333 1333 1332 1332 1331 1330 1330 1329 1329 1330 1331 1332 1333 1334 1335 1337 1339 1340 1341 1343 1344 1346 1347 1348 1350 1351 1353 1354 1355 1356 1357 1358 1359 1360 1361 1362 1364 1365 1366 1368 1369 1371 1372 1374 1375 1376 1378 1379 1380 1382 1383 1384 1385 1386 1387 1388 1389 1390 1391 1392 1393 1394
1346 1345 1345 1343 1342 1341 1340 1339 1338 1336 1335 1334 1333 1333 1332 1331 1331 1331 1330 1329 1329 1329 1330 1331 1332 1333 1334 1336 1337 1339 1340 1341 1343 1345 1346 1347 1349 1350 1351 1352 1353 1354 1355 1356 1357 1358 1360 1361 1362 1364 1365 1366 1368 1370 1371 1372 1374 1375 1376 1378 1378 1379 1380 1382 1383 1384 1385 1386 1387 1387 1388 1389 1391 1391
1345 1344 1343 1343 1342 1341 1340 1339 1338 1336 1335 1335 1334 1333 1332 1331 1331 1331 1331 1330 1330 1330 1331 1331 1332 1333 1334 1335 1337 1338 1339 1341 1342 1344 1345 1347 1347 1348 1349 1350 1352 1353 1354 1355 1357 1357 1359 1360 1362 1363 1365 1366 1367 1369 1370 1371 1372 1373 1375 1376 1377 1377 1379 1380 1381 1382 1383 1384 1384 1385 1386 1387 1388 1389
1343 1343 1342 1341 1341 1340 1339 1338 1337 1336 1335 1335 1334 1333 1332 1332 1331 1331 1331 1331 1331 1331 1332 1332 1333 1333 1334 1335 1337 1338 1339 1341 1342 1344 1345 1346 1346 1347 1348 1350 1351 1352 1353 1354 1356 1357 1358 1360 1361 1362 1364 1365 1366 1367 1368 1369 1370 1371 1373 1374 1375 1376 1377 1378 1379 1380 1381 1381 1382 1383 1383 1384 1385 1387
1342 1341 1341 1340 1339 1339 1338 1338 1337 1336 1335 1335 1334 1333 1333 1332 1331 1331 1331 1331 1331 1331 1332 1332 1333 1334 1335 1336 1337 1338 1339 1341 1342 1343 1344 1345 1345 1346 1348 1349 1350 1351 1352 1354 1355 1356 1357 1358 1360 1361 1362 1363 1364 1365 1366 1367 1369 1370 1371 1372 1372 1373 1374 1375 1376 1377 1378 1379 1380 1381 1381 1382 1383 1384
1341 1340 1340 1339 1339 1338 1337 1337 1336 1336 1335 1334 1334 1333 1333 1332 1332 1331 1331 1331 1331 1331 1331 1332 1333 1334 1335 1336 1337 1338 1339 1340 1341 1342 1343 1344 1345 1346 1347 1348 1349 1351 1352 1353 1354 1355 1356 1357 1358 1360 1361 1362 1363 1364 1365 1366 1367 1368 1369 1369 1370 1371 1372 1373 1374 1375 1376 1376 1377 1378 1379 1380 1380 1380
1340 1339 1339 1338 1338 1337 1336 1336 1335 1335 1334 1334 1333 1333 1333 1332 1332 1332 1331 1331 1331 1331 1331 1332 1333 1334 1334 1335 1336 1338 1339 1340 1341 1341 1342 1343 1344 1345 1346 1347 1348 1349 1351 1352 1353 1354 1355 1356 1357 1358 1359 1360 1361 1362 1363 1364 1365 1366 1366 1367 1368 1369 1369 1370 1371 1372 1373 1374 1374 1375 1376 1376 1377 1377
1339 1338 1338 1337 1337 1336 1335 1335 1334 1334 1334 1333 1333 1333 1332 1332 1332 1331 1331 1331 1331 1331 1332 1332 1333 1333 1334 1335 1336 1337 1338 1339 1340 1341 1341 1342 1343 1344 1345 1346 1347 1348 1349 1350 1351 1352 1353 1354 1355 1356 1357 1358 1359 1360 1361 1361 1362 1363 1364 1365 1366 1366 1367 1367 1368 1369 1370 1370 1371 1372 1372 1373 1373 1373
1338 1337 1337 1336 1336 1335 1335 1334 1334 1333 1333 1333 1332 1332 1332 1332 1331 1331 1331 1331 1331 1331 1331 1332 1332 1333 1334 1334 1335 1336 1337 1338 1339 1340 1340 1341 1342 1343 1344 1345 1346 1347 1348 1349 1350 1351 1351 1352 1353 1354 1354 1355 1356 1357 1358 1359 1359 1360 1361 1362 1362 1363 1364 1364 1365 1365 1366 1367 1368 1368 1369 1369 1369 1370